![]() |
EMODnet Physics ERDDAP
Easier access to scientific data |
log in|
Brought to you by EMODnet Physics |
| Dataset Title: | NDBC - Collection of dew point temperature (DEWT) TimeSeries - IN SITU MultiPointTimeSeriesObservation
|
| Institution: | NDBC (Dataset ID: TS_DEWT_NDBC) |
| Information: | Summary
| License
| FGDC
| ISO 19115
| Metadata
| Background
| Subset
| Data Access Form
| Make a graph
|
| Name | Last modified | Size | Description | |
|---|---|---|---|---|
| Parent Directory | - | - | ||
| GNJT2_TS_DEWT_012007.nc | 29-Nov-2024 09:05 | 1162577 | ||
| GNJT2_TS_DEWT_012008.nc | 29-Nov-2024 10:07 | 1469491 | ||
| GNJT2_TS_DEWT_012012.nc | 29-Nov-2024 11:07 | 1626788 | ||
| GNJT2_TS_DEWT_012013.nc | 29-Nov-2024 12:02 | 1626840 | ||
| GNJT2_TS_DEWT_012014.nc | 29-Nov-2024 13:08 | 1627011 | ||
| GNJT2_TS_DEWT_012015.nc | 29-Nov-2024 14:08 | 1460764 | ||
| GNJT2_TS_DEWT_012016.nc | 29-Nov-2024 15:14 | 1624833 | ||
| GNJT2_TS_DEWT_012017.nc | 29-Nov-2024 16:17 | 1475217 | ||
| GNJT2_TS_DEWT_012018.nc | 29-Nov-2024 17:24 | 1626955 | ||
| GNJT2_TS_DEWT_012019.nc | 29-Nov-2024 18:31 | 1626808 | ||
| GNJT2_TS_DEWT_012020.nc | 29-Nov-2024 19:32 | 1626881 | ||
| GNJT2_TS_DEWT_012021.nc | 29-Nov-2024 20:22 | 1627003 | ||
| GNJT2_TS_DEWT_012022.nc | 29-Nov-2024 21:17 | 1627000 | ||
| GNJT2_TS_DEWT_012023.nc | 29-Nov-2024 22:13 | 1475495 | ||
| GNJT2_TS_DEWT_022007.nc | 29-Nov-2024 09:10 | 1626785 | ||
| GNJT2_TS_DEWT_022012.nc | 29-Nov-2024 11:12 | 1626475 | ||
| GNJT2_TS_DEWT_022013.nc | 29-Nov-2024 12:06 | 1627016 | ||
| GNJT2_TS_DEWT_022014.nc | 29-Nov-2024 13:12 | 1626899 | ||
| GNJT2_TS_DEWT_022015.nc | 29-Nov-2024 14:13 | 1625537 | ||
| GNJT2_TS_DEWT_022016.nc | 29-Nov-2024 15:19 | 1465164 | ||
| GNJT2_TS_DEWT_022017.nc | 29-Nov-2024 16:23 | 1625314 | ||
| GNJT2_TS_DEWT_022018.nc | 29-Nov-2024 17:30 | 1626790 | ||
| GNJT2_TS_DEWT_022019.nc | 29-Nov-2024 18:37 | 1627018 | ||
| GNJT2_TS_DEWT_022020.nc | 29-Nov-2024 19:37 | 1626677 | ||
| GNJT2_TS_DEWT_022021.nc | 29-Nov-2024 20:26 | 907087 | ||
| GNJT2_TS_DEWT_022022.nc | 29-Nov-2024 21:22 | 1476359 | ||
| GNJT2_TS_DEWT_022023.nc | 29-Nov-2024 22:17 | 1476988 | ||
| GNJT2_TS_DEWT_032006.nc | 29-Nov-2024 08:21 | 1474427 | ||
| GNJT2_TS_DEWT_032007.nc | 29-Nov-2024 09:16 | 1476860 | ||
| GNJT2_TS_DEWT_032008.nc | 29-Nov-2024 10:12 | 1471578 | ||
| GNJT2_TS_DEWT_032012.nc | 29-Nov-2024 11:18 | 1477127 | ||
| GNJT2_TS_DEWT_032013.nc | 29-Nov-2024 12:11 | 1477141 | ||
| GNJT2_TS_DEWT_032014.nc | 29-Nov-2024 13:16 | 1474359 | ||
| GNJT2_TS_DEWT_032015.nc | 29-Nov-2024 14:19 | 1476461 | ||
| GNJT2_TS_DEWT_032016.nc | 29-Nov-2024 15:24 | 1477143 | ||
| GNJT2_TS_DEWT_032017.nc | 29-Nov-2024 16:29 | 1476898 | ||
| GNJT2_TS_DEWT_032018.nc | 29-Nov-2024 17:35 | 1477120 | ||
| GNJT2_TS_DEWT_032019.nc | 29-Nov-2024 18:42 | 1477101 | ||
| GNJT2_TS_DEWT_032020.nc | 29-Nov-2024 19:42 | 1472012 | ||
| GNJT2_TS_DEWT_032021.nc | 29-Nov-2024 20:30 | 1476513 | ||
| GNJT2_TS_DEWT_032022.nc | 29-Nov-2024 21:27 | 1477092 | ||
| GNJT2_TS_DEWT_032023.nc | 29-Nov-2024 22:22 | 1477139 | ||
| GNJT2_TS_DEWT_042006.nc | 29-Nov-2024 08:26 | 1476963 | ||
| GNJT2_TS_DEWT_042007.nc | 29-Nov-2024 09:21 | 1163100 | ||
| GNJT2_TS_DEWT_042008.nc | 29-Nov-2024 10:17 | 1477121 | ||
| GNJT2_TS_DEWT_042012.nc | 29-Nov-2024 11:23 | 1626767 | ||
| GNJT2_TS_DEWT_042013.nc | 29-Nov-2024 12:15 | 1476241 | ||
| GNJT2_TS_DEWT_042014.nc | 29-Nov-2024 13:21 | 1626463 | ||
| GNJT2_TS_DEWT_042015.nc | 29-Nov-2024 14:25 | 1626897 | ||
| GNJT2_TS_DEWT_042016.nc | 29-Nov-2024 15:30 | 1626961 | ||
| GNJT2_TS_DEWT_042017.nc | 29-Nov-2024 16:34 | 1626913 | ||
| GNJT2_TS_DEWT_042018.nc | 29-Nov-2024 17:41 | 1626518 | ||
| GNJT2_TS_DEWT_042019.nc | 29-Nov-2024 18:47 | 1626166 | ||
| GNJT2_TS_DEWT_042020.nc | 29-Nov-2024 19:45 | 1626959 | ||
| GNJT2_TS_DEWT_042021.nc | 29-Nov-2024 20:34 | 1625353 | ||
| GNJT2_TS_DEWT_042022.nc | 29-Nov-2024 21:32 | 1626964 | ||
| GNJT2_TS_DEWT_042023.nc | 29-Nov-2024 22:28 | 1626604 | ||
| GNJT2_TS_DEWT_052006.nc | 29-Nov-2024 08:31 | 1475466 | ||
| GNJT2_TS_DEWT_052007.nc | 29-Nov-2024 09:27 | 1625582 | ||
| GNJT2_TS_DEWT_052008.nc | 29-Nov-2024 10:22 | 1626344 | ||
| GNJT2_TS_DEWT_052012.nc | 29-Nov-2024 11:29 | 1626565 | ||
| GNJT2_TS_DEWT_052013.nc | 29-Nov-2024 12:21 | 1627000 | ||
| GNJT2_TS_DEWT_052014.nc | 29-Nov-2024 13:27 | 1473309 | ||
| GNJT2_TS_DEWT_052015.nc | 29-Nov-2024 14:31 | 1476279 | ||
| GNJT2_TS_DEWT_052016.nc | 29-Nov-2024 15:36 | 1476782 | ||
| GNJT2_TS_DEWT_052017.nc | 29-Nov-2024 16:40 | 1474251 | ||
| GNJT2_TS_DEWT_052018.nc | 29-Nov-2024 17:47 | 1476716 | ||
| GNJT2_TS_DEWT_052019.nc | 29-Nov-2024 18:52 | 1477038 | ||
| GNJT2_TS_DEWT_052020.nc | 29-Nov-2024 19:48 | 1477139 | ||
| GNJT2_TS_DEWT_052021.nc | 29-Nov-2024 20:39 | 1477079 | ||
| GNJT2_TS_DEWT_052022.nc | 29-Nov-2024 21:37 | 1476140 | ||
| GNJT2_TS_DEWT_052023.nc | 29-Nov-2024 22:33 | 1476917 | ||
| GNJT2_TS_DEWT_062006.nc | 29-Nov-2024 08:35 | 1476881 | ||
| GNJT2_TS_DEWT_062007.nc | 29-Nov-2024 09:33 | 1474999 | ||
| GNJT2_TS_DEWT_062008.nc | 29-Nov-2024 10:27 | 1477066 | ||
| GNJT2_TS_DEWT_062012.nc | 29-Nov-2024 11:33 | 1476804 | ||
| GNJT2_TS_DEWT_062013.nc | 29-Nov-2024 12:28 | 1472421 | ||
| GNJT2_TS_DEWT_062014.nc | 29-Nov-2024 13:32 | 1471970 | ||
| GNJT2_TS_DEWT_062015.nc | 29-Nov-2024 14:36 | 1476475 | ||
| GNJT2_TS_DEWT_062016.nc | 29-Nov-2024 15:41 | 1477138 | ||
| GNJT2_TS_DEWT_062017.nc | 29-Nov-2024 16:44 | 1477147 | ||
| GNJT2_TS_DEWT_062018.nc | 29-Nov-2024 17:54 | 1624997 | ||
| GNJT2_TS_DEWT_062019.nc | 29-Nov-2024 18:59 | 1625309 | ||
| GNJT2_TS_DEWT_062020.nc | 29-Nov-2024 19:52 | 1626755 | ||
| GNJT2_TS_DEWT_062021.nc | 29-Nov-2024 20:43 | 1626942 | ||
| GNJT2_TS_DEWT_062022.nc | 29-Nov-2024 21:42 | 1624347 | ||
| GNJT2_TS_DEWT_062023.nc | 29-Nov-2024 22:38 | 1626734 | ||
| GNJT2_TS_DEWT_072006.nc | 29-Nov-2024 08:40 | 1626950 | ||
| GNJT2_TS_DEWT_072007.nc | 29-Nov-2024 09:39 | 1626994 | ||
| GNJT2_TS_DEWT_072008.nc | 29-Nov-2024 10:32 | 1626835 | ||
| GNJT2_TS_DEWT_072012.nc | 29-Nov-2024 11:37 | 1626747 | ||
| GNJT2_TS_DEWT_072013.nc | 29-Nov-2024 12:35 | 1626226 | ||
| GNJT2_TS_DEWT_072014.nc | 29-Nov-2024 13:37 | 1626834 | ||
| GNJT2_TS_DEWT_072015.nc | 29-Nov-2024 14:42 | 1626910 | ||
| GNJT2_TS_DEWT_072016.nc | 29-Nov-2024 15:46 | 1477120 | ||
| GNJT2_TS_DEWT_072017.nc | 29-Nov-2024 16:50 | 1477465 | ||
| GNJT2_TS_DEWT_072018.nc | 29-Nov-2024 17:59 | 1626820 | ||
| GNJT2_TS_DEWT_072019.nc | 29-Nov-2024 19:06 | 1626277 | ||
| GNJT2_TS_DEWT_072020.nc | 29-Nov-2024 19:57 | 1474918 | ||
| GNJT2_TS_DEWT_072021.nc | 29-Nov-2024 20:48 | 1626965 | ||
| GNJT2_TS_DEWT_072022.nc | 29-Nov-2024 21:46 | 1626450 | ||
| GNJT2_TS_DEWT_072023.nc | 29-Nov-2024 22:42 | 1161327 | ||
| GNJT2_TS_DEWT_082006.nc | 29-Nov-2024 08:44 | 602445 | ||
| GNJT2_TS_DEWT_082007.nc | 29-Nov-2024 09:44 | 1460081 | ||
| GNJT2_TS_DEWT_082008.nc | 29-Nov-2024 10:37 | 1460346 | ||
| GNJT2_TS_DEWT_082012.nc | 29-Nov-2024 11:41 | 1164137 | ||
| GNJT2_TS_DEWT_082013.nc | 29-Nov-2024 12:40 | 1467691 | ||
| GNJT2_TS_DEWT_082014.nc | 29-Nov-2024 13:42 | 1148372 | ||
| GNJT2_TS_DEWT_082015.nc | 29-Nov-2024 14:47 | 1469415 | ||
| GNJT2_TS_DEWT_082016.nc | 29-Nov-2024 15:51 | 1148698 | ||
| GNJT2_TS_DEWT_082017.nc | 29-Nov-2024 16:55 | 1457970 | ||
| GNJT2_TS_DEWT_082018.nc | 29-Nov-2024 18:04 | 1163854 | ||
| GNJT2_TS_DEWT_082019.nc | 29-Nov-2024 19:11 | 1147667 | ||
| GNJT2_TS_DEWT_082020.nc | 29-Nov-2024 20:00 | 1162632 | ||
| GNJT2_TS_DEWT_082021.nc | 29-Nov-2024 20:52 | 1466012 | ||
| GNJT2_TS_DEWT_082022.nc | 29-Nov-2024 21:51 | 420447 | ||
| GNJT2_TS_DEWT_082023.nc | 29-Nov-2024 22:47 | 1626699 | ||
| GNJT2_TS_DEWT_092006.nc | 29-Nov-2024 08:50 | 1459461 | ||
| GNJT2_TS_DEWT_092007.nc | 29-Nov-2024 09:49 | 1472479 | ||
| GNJT2_TS_DEWT_092008.nc | 29-Nov-2024 10:42 | 1464987 | ||
| GNJT2_TS_DEWT_092011.nc | 29-Nov-2024 10:46 | 1156724 | ||
| GNJT2_TS_DEWT_092012.nc | 29-Nov-2024 11:45 | 1460130 | ||
| GNJT2_TS_DEWT_092013.nc | 29-Nov-2024 12:45 | 1472865 | ||
| GNJT2_TS_DEWT_092014.nc | 29-Nov-2024 13:46 | 1159737 | ||
| GNJT2_TS_DEWT_092015.nc | 29-Nov-2024 14:52 | 1476094 | ||
| GNJT2_TS_DEWT_092016.nc | 29-Nov-2024 15:56 | 1156422 | ||
| GNJT2_TS_DEWT_092017.nc | 29-Nov-2024 17:01 | 1472578 | ||
| GNJT2_TS_DEWT_092018.nc | 29-Nov-2024 18:10 | 1457856 | ||
| GNJT2_TS_DEWT_092019.nc | 29-Nov-2024 19:15 | 1471961 | ||
| GNJT2_TS_DEWT_092020.nc | 29-Nov-2024 20:05 | 1472482 | ||
| GNJT2_TS_DEWT_092021.nc | 29-Nov-2024 20:57 | 1469955 | ||
| GNJT2_TS_DEWT_092022.nc | 29-Nov-2024 21:55 | 1476419 | ||
| GNJT2_TS_DEWT_092023.nc | 29-Nov-2024 22:53 | 1626052 | ||
| GNJT2_TS_DEWT_102006.nc | 29-Nov-2024 08:55 | 1157534 | ||
| GNJT2_TS_DEWT_102007.nc | 29-Nov-2024 09:54 | 1475341 | ||
| GNJT2_TS_DEWT_102011.nc | 29-Nov-2024 10:52 | 1164548 | ||
| GNJT2_TS_DEWT_102012.nc | 29-Nov-2024 11:49 | 1473535 | ||
| GNJT2_TS_DEWT_102013.nc | 29-Nov-2024 12:51 | 1475783 | ||
| GNJT2_TS_DEWT_102014.nc | 29-Nov-2024 13:52 | 1471843 | ||
| GNJT2_TS_DEWT_102015.nc | 29-Nov-2024 14:58 | 1475900 | ||
| GNJT2_TS_DEWT_102016.nc | 29-Nov-2024 16:01 | 1153512 | ||
| GNJT2_TS_DEWT_102017.nc | 29-Nov-2024 17:07 | 1457512 | ||
| GNJT2_TS_DEWT_102018.nc | 29-Nov-2024 18:15 | 1468680 | ||
| GNJT2_TS_DEWT_102019.nc | 29-Nov-2024 19:19 | 1465247 | ||
| GNJT2_TS_DEWT_102020.nc | 29-Nov-2024 20:10 | 1470565 | ||
| GNJT2_TS_DEWT_102021.nc | 29-Nov-2024 21:01 | 994894 | ||
| GNJT2_TS_DEWT_102022.nc | 29-Nov-2024 22:00 | 1466132 | ||
| GNJT2_TS_DEWT_102023.nc | 29-Nov-2024 22:58 | 1625440 | ||
| GNJT2_TS_DEWT_112007.nc | 29-Nov-2024 09:59 | 435246 | ||
| GNJT2_TS_DEWT_112011.nc | 29-Nov-2024 10:57 | 1462718 | ||
| GNJT2_TS_DEWT_112012.nc | 29-Nov-2024 11:54 | 1475956 | ||
| GNJT2_TS_DEWT_112013.nc | 29-Nov-2024 12:57 | 1465975 | ||
| GNJT2_TS_DEWT_112014.nc | 29-Nov-2024 13:57 | 1475966 | ||
| GNJT2_TS_DEWT_112015.nc | 29-Nov-2024 15:04 | 1462569 | ||
| GNJT2_TS_DEWT_112016.nc | 29-Nov-2024 16:06 | 1475769 | ||
| GNJT2_TS_DEWT_112017.nc | 29-Nov-2024 17:12 | 1626072 | ||
| GNJT2_TS_DEWT_112018.nc | 29-Nov-2024 18:20 | 1158617 | ||
| GNJT2_TS_DEWT_112019.nc | 29-Nov-2024 19:23 | 1475112 | ||
| GNJT2_TS_DEWT_112020.nc | 29-Nov-2024 20:14 | 1475832 | ||
| GNJT2_TS_DEWT_112021.nc | 29-Nov-2024 21:07 | 1468494 | ||
| GNJT2_TS_DEWT_112022.nc | 29-Nov-2024 22:05 | 1475561 | ||
| GNJT2_TS_DEWT_112023.nc | 29-Nov-2024 23:03 | 1470235 | ||
| GNJT2_TS_DEWT_122006.nc | 29-Nov-2024 09:00 | 1476021 | ||
| GNJT2_TS_DEWT_122007.nc | 29-Nov-2024 10:03 | 1464497 | ||
| GNJT2_TS_DEWT_122011.nc | 29-Nov-2024 11:02 | 1473252 | ||
| GNJT2_TS_DEWT_122012.nc | 29-Nov-2024 11:58 | 1473136 | ||
| GNJT2_TS_DEWT_122013.nc | 29-Nov-2024 13:02 | 1470259 | ||
| GNJT2_TS_DEWT_122014.nc | 29-Nov-2024 14:03 | 1470878 | ||
| GNJT2_TS_DEWT_122015.nc | 29-Nov-2024 15:09 | 1466308 | ||
| GNJT2_TS_DEWT_122016.nc | 29-Nov-2024 16:12 | 1474563 | ||
| GNJT2_TS_DEWT_122017.nc | 29-Nov-2024 17:18 | 1463648 | ||
| GNJT2_TS_DEWT_122018.nc | 29-Nov-2024 18:26 | 1476521 | ||
| GNJT2_TS_DEWT_122019.nc | 29-Nov-2024 19:28 | 1475797 | ||
| GNJT2_TS_DEWT_122020.nc | 29-Nov-2024 20:18 | 1476111 | ||
| GNJT2_TS_DEWT_122021.nc | 29-Nov-2024 21:12 | 1472938 | ||
| GNJT2_TS_DEWT_122022.nc | 29-Nov-2024 22:09 | 916712 | ||
| GNJT2_TS_DEWT_122023.nc | 29-Nov-2024 23:07 | 1474438 | ||